This demonstration page uses our WeatherBlox Daily Observations layout. Learn more.

39.01783, -85.05884

Hourly Observations for November 12, 2019

Temp ( °F °C ) Dew Point ( °F °C ) Humidity (%) Winds ( mph kmh ) Pressure ( in mb ) Visibility ( mi km ) Precip ( " mm )
12:07 am 00:07 Cloudy with Light Snow 28 -2.2 25 -3.9 88 88 NW 16 26 30.21 1023 0.75 1.207005 0.001 0.001
12:18 am 00:18 Cloudy with Light Snow 28 -2.2 25 -3.9 88 88 NNW 17 28 30.22 1024 1.25 2.011675 0.01 0.254
12:46 am 00:46 Cloudy with Light Snow 28 -2 25 -4 86 86 NW 16 26 30.23 1024 4 6.43736 0.02 0.508
12:52 am 00:52 Cloudy with Light Snow 28 -2.2 23 -5 81 81 NW 16 26 30.18 1022 8 12.87472 0.02 0.508
1:18 am 01:18 Cloudy 28 -2.2 22 -5.6 78 78 NW 16 26 30.24 1024 10 16.0934 0.001 0.001
1:47 am 01:47 Cloudy 28 -2 21 -6 74 74 NW 16 26 30.24 1024 10 16.0934 0.001 0.001
1:52 am 01:52 Cloudy 28 -2.2 22 -5.6 78 78 NW 15 24 30.2 1023 10 16.0934 0.001 0.001
2:52 am 02:52 Cloudy 26 -3.3 21 -6.1 81 81 NW 20 31 30.22 1023 10 16.0934 0 0
3:32 am 03:32 Cloudy 24 -4.4 20 -6.7 84 84 NW 18 30 30.28 1025 10 16.0934 0 0
3:52 am 03:52 Cloudy 24 -4.4 19 -7.2 81 81 NW 15 24 30.25 1024 10 16.0934 0 0
4:52 am 04:52 Cloudy 23 -5 17 -8.3 78 78 WNW 14 22 30.28 1025 10 16.0934 0 0
5:09 am 05:09 Cloudy 22 -5.6 17 -8.3 82 82 NW 14 22 30.33 1027 10 16.0934 0 0
5:52 am 05:52 Cloudy 21 -6.1 16 -8.9 81 81 WNW 14 22 30.3 1026 10 16.0934 0 0
6:52 am 06:52 Cloudy 20 -6.7 14 -10 78 78 NW 18 30 30.33 1027 10 16.0934 0 0
7:52 am 07:52 Cloudy with Light Snow 19 -7.2 13 -10.6 77 77 NW 16 26 30.37 1028 7 11.26538 0.001 0.001
8:17 am 08:17 Cloudy with Light Snow 19 -7.2 12 -11.1 74 74 NW 15 24 30.41 1030 5 8.0467 0.001 0.001
8:52 am 08:52 Cloudy 17 -8.3 11 -11.7 77 77 WNW 15 24 30.39 1029 9 14.48406 0.001 0.001
9:52 am 09:52 Cloudy with Light Snow 17 -8.3 10 -12.2 74 74 NW 14 22 30.41 1030 9 14.48406 0.001 0.001
10:52 am 10:52 Cloudy 19 -7.2 11 -11.7 71 71 NW 15 24 30.41 1030 10 16.0934 0.001 0.001
11:52 am 11:52 Mostly Cloudy 20 -6.7 12 -11.1 71 71 WNW 14 22 30.41 1030 10 16.0934 0 0
12:52 pm 12:52 Mostly Cloudy 23 -5 14 -10 68 68 NW 9 15 30.41 1030 10 16.0934 0 0
1:52 pm 13:52 Mostly Cloudy 23 -5 14 -10 68 68 NW 12 19 30.39 1029 10 16.0934 0 0
2:52 pm 14:52 Mostly Cloudy 24 -4.4 12 -11.1 60 60 N 12 19 30.4 1029 10 16.0934 0 0
3:52 pm 15:52 Cloudy 23 -5 11 -11.7 60 60 NNW 9 15 30.41 1030 10 16.0934 0 0
4:00 pm 16:00 Cloudy 23 -5 11 -11.7 60 60 NNW 9 15 30.45 1031 10 16.0934 0 0
4:52 pm 16:52 Cloudy 23 -5 12 -11.1 63 63 NW 12 19 30.42 1030 10 16.0934 0 0
5:52 pm 17:52 Mostly Cloudy 22 -5.6 11 -11.7 63 63 NNW 12 19 30.44 1031 10 16.0934 0 0
6:26 pm 18:26 Mostly Cloudy 20 -6.7 11 -11.7 68 68 WNW 9 15 30.49 1033 10 16.0934 0 0
6:52 pm 18:52 Mostly Cloudy 20 -6.7 11 -11.7 68 68 WNW 10 17 30.46 1031 10 16.0934 0 0
7:52 pm 19:52 Mostly Cloudy 19 -7.2 11 -11.7 71 71 WNW 6 9 30.47 1032 10 16.0934 0 0
8:15 pm 20:15 Partly Cloudy 18 -7.8 10 -12.2 71 71 WNW 6 9 30.52 1033 10 16.0934 0 0
8:52 pm 20:52 Partly Cloudy 17 -8.3 10 -12.2 74 74 WNW 6 9 30.47 1032 10 16.0934 0 0
9:52 pm 21:52 Mostly Clear 17 -8.3 9 -12.8 70 70 NW 7 11 30.47 1032 10 16.0934 0 0
10:52 pm 22:52 Clear 12 -11.1 9 -12.8 87 87 Calm 30.47 1032 10 16.0934 0 0
11:52 pm 23:52 Clear 14 -10 9 -12.8 80 80 Calm 30.46 1031 10 16.0934 0 0

Powered by AerisWeather